Time,TemperatureF,DewpointF,PressureIn,WindDirection,WindDirectionDegrees,WindSpeedMPH,WindSpeedGustMPH,Humidity,HourlyPrecipIn,Conditions,Clouds,dailyrainin,SoftwareType,DateUTC
2013-11-22 00:12:00,49.0,47.0,32.29,NNE,31,0.0,3.0,93,0.00,,,0.00,weatherlink.com 1.10,2013-11-22 02:12:00,
2013-11-22 00:29:00,48.8,47.0,32.29,NNE,30,3.0,4.0,94,0.00,,,0.00,weatherlink.com 1.10,2013-11-22 02:29:00,
2013-11-22 00:45:00,48.8,47.0,32.29,NNE,30,0.0,3.0,94,0.00,,,0.00,weatherlink.com 1.10,2013-11-22 02:45:00,
2013-11-22 01:00:00,48.9,48.0,32.29,NNE,30,0.0,1.0,95,0.00,,,0.00,weatherlink.com 1.10,2013-11-22 03:00:00,
2013-11-22 01:17:00,48.8,47.0,32.29,NNE,30,1.0,3.0,95,0.00,,,0.00,weatherlink.com 1.10,2013-11-22 03:17:00,
2013-11-22 01:33:00,48.8,47.0,32.29,NNE,30,1.0,2.0,95,0.00,,,0.00,weatherlink.com 1.10,2013-11-22 03:33:00,
2013-11-22 01:49:00,48.6,47.0,32.29,NNE,26,1.0,4.0,95,0.00,,,0.00,weatherlink.com 1.10,2013-11-22 03:49:00,
2013-11-22 02:05:00,48.4,47.0,32.29,NNE,27,2.0,3.0,95,0.00,,,0.00,weatherlink.com 1.10,2013-11-22 04:05:00,
2013-11-22 02:21:00,48.3,47.0,32.29,NNE,26,0.0,3.0,96,0.00,,,0.00,weatherlink.com 1.10,2013-11-22 04:21:00,
2013-11-22 02:37:00,48.2,47.0,32.29,NNE,27,1.0,3.0,96,0.00,,,0.00,weatherlink.com 1.10,2013-11-22 04:37:00,
2013-11-22 02:53:00,48.2,47.0,32.29,NNE,27,0.0,3.0,96,0.00,,,0.00,weatherlink.com 1.10,2013-11-22 04:53:00,
2013-11-22 03:09:00,48.2,47.0,32.29,NNE,27,1.0,3.0,96,0.00,,,0.00,weatherlink.com 1.10,2013-11-22 05:09:00,
2013-11-22 03:25:00,48.2,48.0,32.29,NNE,27,1.0,2.0,100,0.00,,,0.00,weatherlink.com 1.10,2013-11-22 05:25:00,
2013-11-22 03:41:00,48.2,47.0,32.29,NNE,27,0.0,1.0,97,0.00,,,0.00,weatherlink.com 1.10,2013-11-22 05:41:00,
2013-11-22 03:57:00,48.2,47.0,32.29,NNE,27,0.0,2.0,97,0.00,,,0.00,weatherlink.com 1.10,2013-11-22 05:57:00,
2013-11-22 04:13:00,48.2,47.0,32.29,NNE,26,0.0,2.0,97,0.00,,,0.00,weatherlink.com 1.10,2013-11-22 06:13:00,
2013-11-22 04:30:00,48.2,47.0,32.29,NNE,27,0.0,0.0,97,0.00,,,0.00,weatherlink.com 1.10,2013-11-22 06:30:00,
2013-11-22 04:46:00,48.2,47.0,32.29,NNE,27,0.0,0.0,97,0.01,,,0.01,weatherlink.com 1.10,2013-11-22 06:46:00,
2013-11-22 05:02:00,48.2,48.0,32.29,NNE,27,2.0,3.0,98,0.01,,,0.01,weatherlink.com 1.10,2013-11-22 07:02:00,
2013-11-22 05:18:00,48.1,48.0,32.29,NNE,27,0.0,3.0,98,0.01,,,0.01,weatherlink.com 1.10,2013-11-22 07:18:00,
2013-11-22 05:34:00,48.1,48.0,32.29,NNE,26,0.0,2.0,98,0.01,,,0.01,weatherlink.com 1.10,2013-11-22 07:34:00,
2013-11-22 05:50:00,48.1,48.0,32.29,NNE,27,1.0,3.0,98,0.00,,,0.01,weatherlink.com 1.10,2013-11-22 07:50:00,
2013-11-22 06:06:00,48.1,48.0,32.29,NNE,26,0.0,1.0,98,0.00,,,0.01,weatherlink.com 1.10,2013-11-22 08:06:00,
2013-11-22 06:22:00,48.1,48.0,32.29,NNE,26,0.0,2.0,98,0.00,,,0.01,weatherlink.com 1.10,2013-11-22 08:22:00,
2013-11-22 06:38:00,48.1,48.0,32.29,NNE,26,0.0,3.0,98,0.00,,,0.01,weatherlink.com 1.10,2013-11-22 08:38:00,
2013-11-22 06:54:00,48.1,48.0,32.29,NNE,26,1.0,4.0,98,0.00,,,0.01,weatherlink.com 1.10,2013-11-22 08:54:00,
2013-11-22 07:10:00,48.1,48.0,32.29,North,5,1.0,4.0,98,0.01,,,0.02,weatherlink.com 1.10,2013-11-22 09:10:00,
2013-11-22 07:27:00,48.1,48.0,32.29,NW,325,3.0,4.0,98,0.01,,,0.02,weatherlink.com 1.10,2013-11-22 09:27:00,
2013-11-22 07:42:00,48.1,48.0,32.29,NW,325,4.0,4.0,98,0.02,,,0.03,weatherlink.com 1.10,2013-11-22 09:42:00,
2013-11-22 07:59:00,48.1,48.0,32.29,NW,325,1.0,4.0,98,0.02,,,0.03,weatherlink.com 1.10,2013-11-22 09:59:00,
2013-11-22 08:15:00,48.2,48.0,32.29,NW,325,0.0,2.0,98,0.01,,,0.03,weatherlink.com 1.10,2013-11-22 10:15:00,
2013-11-22 08:31:00,48.2,48.0,32.29,NW,325,0.0,2.0,100,0.00,,,0.03,weatherlink.com 1.10,2013-11-22 10:31:00,
2013-11-22 08:47:00,48.2,48.0,32.29,NW,325,0.0,2.0,98,0.00,,,0.03,weatherlink.com 1.10,2013-11-22 10:47:00,
2013-11-22 09:03:00,48.3,48.0,32.29,NW,325,0.0,0.0,98,0.00,,,0.03,weatherlink.com 1.10,2013-11-22 11:03:00,
2013-11-22 09:19:00,48.3,48.0,32.29,NW,325,0.0,0.0,98,0.00,,,0.03,weatherlink.com 1.10,2013-11-22 11:19:00,
2013-11-22 09:35:00,48.4,48.0,32.29,NW,325,0.0,2.0,98,0.00,,,0.03,weatherlink.com 1.10,2013-11-22 11:35:00,
2013-11-22 09:51:00,48.4,48.0,32.29,NW,325,0.0,1.0,98,0.00,,,0.03,weatherlink.com 1.10,2013-11-22 11:51:00,
2013-11-22 10:07:00,48.5,48.0,32.29,NW,325,0.0,0.0,98,0.00,,,0.03,weatherlink.com 1.10,2013-11-22 12:07:00,
2013-11-22 10:24:00,48.5,48.0,32.29,NW,325,0.0,0.0,99,0.00,,,0.03,weatherlink.com 1.10,2013-11-22 12:24:00,
2013-11-22 10:39:00,48.7,48.0,32.29,NW,325,0.0,0.0,98,0.00,,,0.03,weatherlink.com 1.10,2013-11-22 12:39:00,
2013-11-22 10:55:00,49.2,49.0,32.29,NW,325,0.0,0.0,99,0.00,,,0.03,weatherlink.com 1.10,2013-11-22 12:55:00,
2013-11-22 11:11:00,49.4,49.0,32.29,NW,325,0.0,3.0,98,0.00,,,0.03,weatherlink.com 1.10,2013-11-22 13:11:00,
2013-11-22 11:28:00,49.6,49.0,32.29,NW,325,0.0,1.0,99,0.00,,,0.03,weatherlink.com 1.10,2013-11-22 13:28:00,
2013-11-22 11:44:00,49.7,49.0,32.29,NW,325,1.0,2.0,99,0.00,,,0.03,weatherlink.com 1.10,2013-11-22 13:44:00,
2013-11-22 12:00:00,50.1,50.0,32.29,NW,325,0.0,0.0,98,0.00,,,0.03,weatherlink.com 1.10,2013-11-22 14:00:00,
2013-11-22 12:16:00,50.4,50.0,32.29,NW,313,0.0,0.0,99,0.00,,,0.03,weatherlink.com 1.10,2013-11-22 14:16:00,
2013-11-22 12:32:00,50.6,50.0,32.29,NW,313,0.0,1.0,98,0.00,,,0.03,weatherlink.com 1.10,2013-11-22 14:32:00,
2013-11-22 12:48:00,50.8,50.0,32.29,NW,313,1.0,1.0,98,0.00,,,0.03,weatherlink.com 1.10,2013-11-22 14:48:00,
2013-11-22 13:04:00,51.2,51.0,32.29,NW,313,0.0,3.0,98,0.00,,,0.03,weatherlink.com 1.10,2013-11-22 15:04:00,
2013-11-22 13:20:00,51.4,51.0,32.29,NW,313,0.0,1.0,98,0.00,,,0.03,weatherlink.com 1.10,2013-11-22 15:20:00,
2013-11-22 13:36:00,52.3,52.0,32.29,NNW,340,0.0,1.0,98,0.00,,,0.03,weatherlink.com 1.10,2013-11-22 15:36:00,
2013-11-22 13:52:00,52.8,52.0,32.29,NNW,340,0.0,2.0,98,0.00,,,0.03,weatherlink.com 1.10,2013-11-22 15:52:00,
2013-11-22 14:08:00,53.2,52.0,32.29,NNW,341,0.0,2.0,97,0.00,,,0.03,weatherlink.com 1.10,2013-11-22 16:08:00,
2013-11-22 14:25:00,54.0,53.0,32.29,NNE,28,0.0,3.0,96,0.00,,,0.03,weatherlink.com 1.10,2013-11-22 16:25:00,
2013-11-22 14:41:00,54.8,54.0,32.29,NNE,29,0.0,1.0,96,0.00,,,0.03,weatherlink.com 1.10,2013-11-22 16:41:00,
2013-11-22 14:57:00,55.6,54.0,32.29,NE,42,0.0,2.0,95,0.00,,,0.03,weatherlink.com 1.10,2013-11-22 16:57:00,
2013-11-22 15:13:00,56.5,55.0,32.29,NE,42,0.0,1.0,95,0.01,,,0.04,weatherlink.com 1.10,2013-11-22 17:13:00,
2013-11-22 15:29:00,57.0,55.0,32.29,NE,42,0.0,2.0,94,0.01,,,0.04,weatherlink.com 1.10,2013-11-22 17:29:00,
2013-11-22 15:45:00,57.7,55.0,32.29,NNW,336,2.0,6.0,92,0.01,,,0.04,weatherlink.com 1.10,2013-11-22 17:45:00,
2013-11-22 16:01:00,57.5,55.0,32.29,NNW,328,4.0,5.0,92,0.00,,,0.04,weatherlink.com 1.10,2013-11-22 18:01:00,
2013-11-22 16:18:00,57.8,55.0,32.29,NW,326,2.0,5.0,92,0.00,,,0.04,weatherlink.com 1.10,2013-11-22 18:18:00,
2013-11-22 16:34:00,58.7,56.0,32.29,NNW,327,0.0,4.0,91,0.00,,,0.04,weatherlink.com 1.10,2013-11-22 18:34:00,
2013-11-22 16:50:00,59.5,57.0,32.29,NW,326,2.0,3.0,92,0.00,,,0.04,weatherlink.com 1.10,2013-11-22 18:50:00,
2013-11-22 17:06:00,59.8,57.0,32.29,NW,322,2.0,3.0,89,0.00,,,0.04,weatherlink.com 1.10,2013-11-22 19:06:00,
2013-11-22 17:23:00,59.7,56.0,32.29,NW,323,0.0,3.0,89,0.00,,,0.04,weatherlink.com 1.10,2013-11-22 19:23:00,
2013-11-22 17:39:00,60.1,57.0,32.29,NW,323,0.0,0.0,89,0.00,,,0.04,weatherlink.com 1.10,2013-11-22 19:39:00,
2013-11-22 17:55:00,60.0,57.0,32.29,NE,51,0.0,2.0,89,0.00,,,0.04,weatherlink.com 1.10,2013-11-22 19:55:00,
2013-11-22 18:11:00,60.2,57.0,32.29,NE,51,1.0,3.0,89,0.00,,,0.04,weatherlink.com 1.10,2013-11-22 20:11:00,
2013-11-22 18:27:00,60.7,57.0,32.29,NE,51,1.0,2.0,88,0.00,,,0.04,weatherlink.com 1.10,2013-11-22 20:27:00,
2013-11-22 18:43:00,60.5,57.0,32.29,NE,51,0.0,3.0,88,0.00,,,0.04,weatherlink.com 1.10,2013-11-22 20:43:00,
2013-11-22 18:59:00,60.3,57.0,32.29,NE,46,3.0,3.0,89,0.00,,,0.04,weatherlink.com 1.10,2013-11-22 20:59:00,
2013-11-22 19:16:00,60.1,57.0,32.29,NE,46,0.0,0.0,90,0.00,,,0.04,weatherlink.com 1.10,2013-11-22 21:16:00,
2013-11-22 19:32:00,60.1,57.0,32.29,NE,46,0.0,0.0,90,0.00,,,0.04,weatherlink.com 1.10,2013-11-22 21:32:00,
2013-11-22 19:48:00,59.9,57.0,32.29,NE,46,0.0,0.0,91,0.00,,,0.04,weatherlink.com 1.10,2013-11-22 21:48:00,
2013-11-22 20:04:00,59.5,57.0,0.00,NE,46,0.0,0.0,91,0.00,,,0.04,weatherlink.com 1.10,2013-11-22 22:04:00,
2013-11-22 20:20:00,59.1,57.0,0.00,NE,45,0.0,0.0,92,0.00,,,0.04,weatherlink.com 1.10,2013-11-22 22:20:00,
2013-11-22 20:36:00,59.0,57.0,0.00,NE,46,0.0,0.0,93,0.00,,,0.04,weatherlink.com 1.10,2013-11-22 22:36:00,
2013-11-22 20:52:00,59.0,57.0,0.00,NE,46,0.0,0.0,93,0.00,,,0.04,weatherlink.com 1.10,2013-11-22 22:52:00,
2013-11-22 21:08:00,58.8,57.0,0.00,NE,46,0.0,0.0,93,0.00,,,0.04,weatherlink.com 1.10,2013-11-22 23:08:00,
2013-11-22 21:25:00,58.3,57.0,0.00,NE,45,0.0,0.0,94,0.00,,,0.04,weatherlink.com 1.10,2013-11-22 23:25:00,
2013-11-22 21:41:00,58.0,56.0,0.00,NE,46,0.0,0.0,94,0.00,,,0.04,weatherlink.com 1.10,2013-11-22 23:41:00,
2013-11-22 21:57:00,57.7,56.0,0.00,NE,46,0.0,0.0,95,0.00,,,0.04,weatherlink.com 1.10,2013-11-22 23:57:00,
2013-11-22 22:13:00,57.4,56.0,0.00,NE,46,0.0,0.0,95,0.00,,,0.04,weatherlink.com 1.10,2013-11-23 00:13:00,
2013-11-22 22:29:00,57.0,56.0,0.00,NE,46,0.0,0.0,96,0.00,,,0.04,weatherlink.com 1.10,2013-11-23 00:29:00,
2013-11-22 22:45:00,56.8,56.0,32.18,NE,46,0.0,0.0,96,0.00,,,0.04,weatherlink.com 1.10,2013-11-23 00:45:00,
2013-11-22 23:01:00,56.7,56.0,32.18,NE,46,0.0,0.0,97,0.00,,,0.04,weatherlink.com 1.10,2013-11-23 01:01:00,
2013-11-22 23:18:00,56.5,56.0,32.18,NE,45,0.0,2.0,97,0.00,,,0.04,weatherlink.com 1.10,2013-11-23 01:18:00,
2013-11-22 23:34:00,56.4,56.0,32.18,NE,45,0.0,2.0,97,0.00,,,0.04,weatherlink.com 1.10,2013-11-23 01:34:00,
2013-11-22 23:50:00,56.4,56.0,0.00,NE,45,0.0,0.0,97,0.00,,,0.04,weatherlink.com 1.10,2013-11-23 01:50:00,